Location: Brompton
(51.4000°N, 0.5333°E)
Time: 11:59:31
(UTC+00:00)

Cosmos 1898 Rocket - Pass Details

Date: 01 October 2021
Orbit: 752 x 784 km, 74.0° (Epoch: 17 October)

Event Time Altitude Azimuth Distance (km) Brightness Sun altitude
Rises 04:36:36 0° 336° (NNW) 3,271 6.6 -13.6°
Reaches altitude 10° 04:39:01 10° 341° (NNW) 2,344 5.9 -13.2°
Maximum altitude 04:44:18 59° 61° (ENE) 902 4.2 -12.4°
Drops below altitude 10° 04:49:33 10° 141° (SE) 2,339 6.4 -11.6°
Sets 04:51:58 0° 145° (SE) 3,264 7.1 -11.2°
